Regional Weather Roundup
Issued by NWS Columbia, SC

Home | Current Version | Previous Version | Text Only | Print | Product List | Glossary On
Versions: 1 2 3 4 5 6 7 8 9 10 11 12 13 14 15 16 17 18 19 20 21 22 23 24 25 26 27 28 29 30 31 32 33 34 35 36
000
ASUS42 KCAE 231710
RWRCAE
REGIONAL WEATHER ROUNDUP
NATIONAL WEATHER SERVICE COLUMBIA SC
100 PM EDT THU OCT 23 2014

NOTE: "FAIR" INDICATES FEW OR NO CLOUDS BELOW 12,000 FEET WITH NO
SIGNIFICANT WEATHER AND/OR OBSTRUCTIONS TO VISIBILITY.

NOT ALL STATIONS ARE QUALITY CONTROLLED BY THE NATIONAL
WEATHER SERVICE. USE DATA WITH CAUTION...ESPECIALLY
DEWPOINT OBSERVATIONS.

SCZ001>056-GAZ040-063>065-077-231800-
...UPSTATE SOUTH CAROLINA...

CITY           SKY/WX    TMP DP  RH WIND       PRES   REMARKS
ANDERSON       SUNNY     64  41  42 SW5       30.08F
LIBERTY        FAIR      66  42  41 MISG      30.07F
SPARTANBURG    FAIR      68  36  30 CALM      30.06F
CLEMSON        SUNNY     66  36  32 NE5       30.09F
GREENVILLE     SUNNY     65  38  36 VRB3      30.08F
GREENWOOD      SUNNY     65  40  39 W8        30.09F
GREER          SUNNY     65  37  35 CALM      30.06F
ROCK HILL      SUNNY     65  41  41 N10G17    30.07F
LAURENS        FAIR      63  30  29 W3        30.08F


...CENTRAL SOUTH CAROLINA...

CITY           SKY/WX    TMP DP  RH WIND       PRES   REMARKS
COLUMBIA APT   SUNNY     67  38  34 NW10      30.06F
COLUMBIA OWENS SUNNY     65  39  38 NW6       30.08F
DARLINGTON     SUNNY     64  41  42 N9        30.05F
FLORENCE       SUNNY     66  41  40 N12       30.03F
MCENTIRE ANGB  SUNNY     67  40  37 NW1       30.06F
ORANGEBURG     SUNNY     66  40  38 NW9       30.06F
SUMTER SHAW    SUNNY     64  42  44 W6        30.04F
NEWBERRY       FAIR      64  43  45 NW5       30.10F
AIKEN          FAIR      64  43  45 N7        30.10F
BARNWELL       FAIR      68  39  34 N6        30.07F
MANNING        FAIR      66  45  45 W3        30.05F
CAMDEN         FAIR      63  41  45 W8        30.06F
LANCASTER      FAIR      64  39  39 W10       30.06F
WINNSBORO      FAIR      64  41  42 N6        30.05F


...EASTERN AND COASTAL SOUTH CAROLINA...

CITY           SKY/WX    TMP DP  RH WIND       PRES   REMARKS
MYRTLE BEACH   SUNNY     66  43  42 NW10      30.03F
N MYRTLE BCH   SUNNY     66  44  45 MISG      30.01F
CONWAY         FAIR      64  43  45 W6        30.02F
MARION         FAIR      64  41  42 NW7       30.03F
HARTSVILLE     FAIR      64  12  13 N8        30.04F
FLORENCE       SUNNY     66  41  40 N12       30.03F
DARLINGTON     SUNNY     64  41  42 N9        30.05F
CHARLESTON APT SUNNY     67  45  45 N7        30.06F
MOUNT PLEASANT FAIR      64  46  52 W3        30.05F
WALTERBORO     SUNNY     66  37  34 W3        30.07F
BEAUFORT       SUNNY     65  44  46 MISG      30.08F


...EASTERN GEORGIA...

CITY           SKY/WX    TMP DP  RH WIND       PRES   REMARKS
AUGUSTA BUSH F SUNNY     67  37  33 NW7       30.08F
AUGUSTA DANIEL SUNNY     65  38  36 VRB6      30.09F
THOMSON        SUNNY     65  48  55 CALM      30.13F
WASHINGTON     FAIR      66  46  48 W5        30.09F
CLAXTON        FAIR      68  45  42 NW6       30.09F
SYLVANIA       SUNNY     71  49  46 N5        30.09F
SAVANNAH       SUNNY     67  44  43 NW3       30.08F


...SOUTHERN NORTH CAROLINA...

CITY           SKY/WX    TMP DP  RH WIND       PRES   REMARKS
CHARLOTTE      SUNNY     65  37  35 N14       30.07F
MONROE         SUNNY     62  38  40 VRB7      30.04F
WADESBORO      SUNNY     65  38  37 W8        30.04F
ROCKINGHAM     SUNNY     62  44  51 NW6       30.03F
RUTHERFORDTON  SUNNY     66  40  37 N7        30.06F
ASHEVILLE      SUNNY     59  36  42 N20G26    30.11F

$$



USA.gov is the U.S. government's official web portal to all federal, state and local government web resources and services.